When you browse on this site, cookies collect data to enhance your experience and personalize the content and advertising you see.
Visit our Privacy Policy to learn more. By continuing to use the site, you agree to this use of cookies and data.
  • In Österreich
  • Länderverzeichnis
  • Für 7 Tage
  • Wassertemperatur
  • Wetterkarte
  • News
  • Widgets
  • user-avatar
    Anmelden

    Stündliche Wetter Simijaca

    Heute, 23 September, Montag

    Zeit Temperatur Niederschläge Wind Luftdruck Luftfeuchtigkeit
    00:00 +10°C° 0 mm 1 m/S 558 mmHg 94%
    01:00 +10°C° 0 mm 1 m/S 558 mmHg 94%
    02:00 +10°C° 0 mm 1 m/S 558 mmHg 94%
    03:00 +10°C° 0 mm 1 m/S 557 mmHg 93%
    04:00 +9°C° 0 mm 1 m/S 557 mmHg 92%
    05:00 +10°C° 0 mm 1 m/S 558 mmHg 90%
    06:00 +11°C° 0 mm 1 m/S 559 mmHg 88%
    07:00 +11°C° 0 mm 1 m/S 559 mmHg 86%
    08:00 +14°C° 0 mm 1 m/S 561 mmHg 76%
    09:00 +16°C° 0 mm 1 m/S 562 mmHg 66%
    10:00 +20°C° 0 mm 1 m/S 563 mmHg 57%
    11:00 +20°C° 0.3 mm 1 m/S 562 mmHg 59%
    12:00 +20°C° 0.3 mm 1 m/S 562 mmHg 62%
    13:00 +20°C° 0.3 mm 1 m/S 561 mmHg 65%
    14:00 +19°C° 1.1 mm 1 m/S 560 mmHg 71%
    15:00 +18°C° 1.1 mm 1 m/S 559 mmHg 78%
    16:00 +18°C° 1.1 mm 1 m/S 559 mmHg 84%
    17:00 +15°C° 1.6 mm 1 m/S 558 mmHg 88%
    18:00 +14°C° 1.6 mm 1 m/S 558 mmHg 91%
    19:00 +13°C° 1.6 mm 1 m/S 558 mmHg 94%
    20:00 +12°C° 2.2 mm 1 m/S 558 mmHg 95%
    21:00 +12°C° 2.2 mm 1 m/S 558 mmHg 96%
    22:00 +12°C° 2.2 mm 1 m/S 559 mmHg 97%
    23:00 +11°C° 0.5 mm 1 m/S 558 mmHg 95%

    Morgen, 24 September, Dienstag

    Zeit Temperatur Niederschläge Wind Luftdruck Luftfeuchtigkeit
    00:00 +11°C° 0.5 mm 1 m/S 558 mmHg 94%
    01:00 +10°C° 0.5 mm 1 m/S 557 mmHg 93%
    02:00 +10°C° 0 mm 1 m/S 557 mmHg 91%
    03:00 +10°C° 0 mm 1 m/S 557 mmHg 89%
    04:00 +10°C° 0 mm 1 m/S 557 mmHg 87%
    05:00 +10°C° 0 mm 1 m/S 558 mmHg 85%
    06:00 +11°C° 0 mm 1 m/S 558 mmHg 84%
    07:00 +11°C° 0 mm 1 m/S 559 mmHg 82%
    08:00 +14°C° 0 mm 1 m/S 560 mmHg 75%
    09:00 +16°C° 0 mm 1 m/S 562 mmHg 68%
    10:00 +19°C° 0 mm 1 m/S 564 mmHg 62%
    11:00 +19°C° 0.5 mm 1 m/S 563 mmHg 65%
    12:00 +19°C° 0.5 mm 1 m/S 562 mmHg 68%
    13:00 +19°C° 0.5 mm 1 m/S 561 mmHg 72%
    14:00 +18°C° 0.9 mm 1 m/S 560 mmHg 77%
    15:00 +16°C° 0.9 mm 1 m/S 559 mmHg 81%
    16:00 +14°C° 0.9 mm 0 m/S 558 mmHg 86%
    17:00 +14°C° 0.8 mm 1 m/S 558 mmHg 89%
    18:00 +13°C° 0.8 mm 1 m/S 558 mmHg 91%
    19:00 +13°C° 0.8 mm 1 m/S 558 mmHg 93%
    20:00 +12°C° 0.7 mm 1 m/S 558 mmHg 93%
    21:00 +12°C° 0.7 mm 1 m/S 559 mmHg 94%
    22:00 +12°C° 0.7 mm 1 m/S 559 mmHg 94%
    23:00 +12°C° 0.5 mm 1 m/S 559 mmHg 94%

    übermorgen, 25 September, Mittwoch

    Zeit Temperatur Niederschläge Wind Luftdruck Luftfeuchtigkeit
    00:00 +12°C° 0.5 mm 1 m/S 559 mmHg 94%
    01:00 +12°C° 0.5 mm 1 m/S 558 mmHg 94%
    02:00 +12°C° 0.2 mm 1 m/S 558 mmHg 94%
    03:00 +11°C° 0.2 mm 1 m/S 558 mmHg 94%
    04:00 +11°C° 0.2 mm 1 m/S 558 mmHg 94%
    05:00 +11°C° 0.1 mm 1 m/S 558 mmHg 93%
    06:00 +12°C° 0.1 mm 1 m/S 559 mmHg 92%
    07:00 +12°C° 0.1 mm 1 m/S 559 mmHg 91%
    08:00 +14°C° 0.3 mm 1 m/S 561 mmHg 86%
    09:00 +16°C° 0.3 mm 1 m/S 562 mmHg 81%
    10:00 +18°C° 0.3 mm 1 m/S 563 mmHg 76%
    11:00 +19°C° 1.3 mm 1 m/S 562 mmHg 76%
    12:00 +19°C° 1.3 mm 1 m/S 561 mmHg 77%
    13:00 +19°C° 1.3 mm 1 m/S 560 mmHg 78%
    14:00 +18°C° 1.4 mm 1 m/S 560 mmHg 80%
    15:00 +18°C° 1.4 mm 1 m/S 559 mmHg 82%
    16:00 +16°C° 1.4 mm 1 m/S 559 mmHg 84%
    17:00 +15°C° 1.3 mm 1 m/S 558 mmHg 88%
    18:00 +14°C° 1.3 mm 1 m/S 558 mmHg 92%
    19:00 +11°C° 1.3 mm 0 m/S 558 mmHg 95%
    20:00 +12°C° 0.5 mm 1 m/S 558 mmHg 95%
    21:00 +12°C° 0.5 mm 1 m/S 559 mmHg 96%
    22:00 +12°C° 0.5 mm 1 m/S 559 mmHg 96%
    23:00 +11°C° 0.1 mm 1 m/S 559 mmHg 95%

    26 September, Donnerstag

    Zeit Temperatur Niederschläge Wind Luftdruck Luftfeuchtigkeit
    00:00 +11°C° 0.1 mm 1 m/S 558 mmHg 95%
    01:00 +11°C° 0.1 mm 1 m/S 558 mmHg 95%
    02:00 +11°C° 0 mm 1 m/S 558 mmHg 94%
    03:00 +10°C° 0 mm 1 m/S 557 mmHg 94%
    04:00 +10°C° 0 mm 1 m/S 557 mmHg 93%
    05:00 +11°C° 0 mm 1 m/S 558 mmHg 92%
    06:00 +11°C° 0 mm 1 m/S 559 mmHg 91%
    07:00 +12°C° 0 mm 1 m/S 559 mmHg 89%
    08:00 +14°C° 0 mm 1 m/S 560 mmHg 81%
    09:00 +16°C° 0 mm 2 m/S 561 mmHg 72%
    10:00 +18°C° 0 mm 2 m/S 562 mmHg 64%
    11:00 +18°C° 0.6 mm 2 m/S 561 mmHg 68%
    12:00 +17°C° 0.6 mm 2 m/S 560 mmHg 72%
    13:00 +17°C° 0.6 mm 2 m/S 559 mmHg 77%
    14:00 +17°C° 0.6 mm 2 m/S 559 mmHg 77%
    15:00 +17°C° 0.6 mm 2 m/S 559 mmHg 77%
    16:00 +17°C° 0.6 mm 2 m/S 558 mmHg 77%
    17:00 +15°C° 0.6 mm 2 m/S 558 mmHg 82%
    18:00 +13°C° 0.6 mm 1 m/S 557 mmHg 88%
    19:00 +12°C° 0.6 mm 1 m/S 557 mmHg 93%
    20:00 +11°C° 0.4 mm 1 m/S 557 mmHg 93%
    21:00 +11°C° 0.4 mm 1 m/S 557 mmHg 93%
    22:00 +11°C° 0.4 mm 1 m/S 558 mmHg 93%
    23:00 +11°C° 0.1 mm 1 m/S 558 mmHg 92%

    27 September, Freitag

    Zeit Temperatur Niederschläge Wind Luftdruck Luftfeuchtigkeit
    00:00 +11°C° 0.1 mm 1 m/S 558 mmHg 91%
    01:00 +11°C° 0.1 mm 1 m/S 558 mmHg 90%
    02:00 +11°C° 0 mm 1 m/S 557 mmHg 91%
    03:00 +10°C° 0 mm 1 m/S 557 mmHg 91%
    04:00 +10°C° 0 mm 1 m/S 556 mmHg 92%
    05:00 +11°C° 0 mm 1 m/S 557 mmHg 89%
    06:00 +11°C° 0 mm 1 m/S 558 mmHg 86%
    07:00 +12°C° 0 mm 1 m/S 559 mmHg 84%
    08:00 +14°C° 0.1 mm 1 m/S 560 mmHg 78%
    09:00 +16°C° 0.1 mm 1 m/S 561 mmHg 72%
    10:00 +19°C° 0.1 mm 1 m/S 562 mmHg 66%
    11:00 +18°C° 0.8 mm 2 m/S 562 mmHg 67%
    12:00 +18°C° 0.8 mm 2 m/S 561 mmHg 69%
    13:00 +18°C° 0.8 mm 2 m/S 560 mmHg 71%
    14:00 +18°C° 1.1 mm 1 m/S 560 mmHg 75%
    15:00 +18°C° 1.1 mm 1 m/S 559 mmHg 79%
    16:00 +16°C° 1.1 mm 1 m/S 558 mmHg 83%
    17:00 +15°C° 0.9 mm 1 m/S 558 mmHg 87%
    18:00 +13°C° 0.9 mm 1 m/S 558 mmHg 91%
    19:00 +12°C° 0.9 mm 1 m/S 557 mmHg 95%
    20:00 +12°C° 0.3 mm 1 m/S 557 mmHg 95%
    21:00 +11°C° 0.3 mm 1 m/S 558 mmHg 95%
    22:00 +11°C° 0.3 mm 1 m/S 558 mmHg 95%
    23:00 +10°C° 0 mm 1 m/S 557 mmHg 95%

    28 September, Samstag

    Zeit Temperatur Niederschläge Wind Luftdruck Luftfeuchtigkeit
    00:00 +10°C° 0 mm 1 m/S 557 mmHg 94%
    01:00 +10°C° 0 mm 1 m/S 557 mmHg 94%
    02:00 +10°C° 0 mm 1 m/S 557 mmHg 94%
    03:00 +10°C° 0 mm 1 m/S 556 mmHg 94%
    04:00 +9°C° 0 mm 1 m/S 556 mmHg 94%
    05:00 +10°C° 0 mm 1 m/S 557 mmHg 92%
    06:00 +10°C° 0 mm 0 m/S 558 mmHg 90%
    07:00 +11°C° 0 mm 0 m/S 559 mmHg 88%
    08:00 +13°C° 0.3 mm 0 m/S 560 mmHg 82%
    09:00 +16°C° 0.3 mm 1 m/S 561 mmHg 76%
    10:00 +19°C° 0.3 mm 1 m/S 562 mmHg 70%
    11:00 +19°C° 0.7 mm 1 m/S 561 mmHg 71%
    12:00 +19°C° 0.7 mm 1 m/S 560 mmHg 72%
    13:00 +19°C° 0.7 mm 1 m/S 559 mmHg 73%
    14:00 +18°C° 0.9 mm 1 m/S 559 mmHg 77%
    15:00 +18°C° 0.9 mm 1 m/S 558 mmHg 82%
    16:00 +16°C° 0.9 mm 1 m/S 557 mmHg 86%
    17:00 +15°C° 1.5 mm 1 m/S 557 mmHg 89%
    18:00 +13°C° 1.5 mm 0 m/S 557 mmHg 92%
    19:00 +12°C° 1.5 mm 0 m/S 557 mmHg 96%
    20:00 +12°C° 1.2 mm 0 m/S 557 mmHg 96%
    21:00 +12°C° 1.2 mm 0 m/S 558 mmHg 96%
    22:00 +11°C° 1.2 mm 0 m/S 558 mmHg 96%
    23:00 +11°C° 0.5 mm 0 m/S 558 mmHg 96%
    Mehr zeigen